Regional Weather Roundup
Issued by NWS Cleveland, OH

Home | Current Version | Previous Version | Text Only | Print | Product List | Glossary Off
Versions: 1 2 3 4 5 6 7 8 9 10 11 12 13 14 15 16 17 18 19 20 21 22 23 24 25 26 27 28 29 30 31 32 33 34 35 36 37 38 39 40 41 42 43 44 45 46 47 48 49 50

000
ASUS41 KCLE 271502
RWRCLE
OHIO REGIONAL WEATHER ROUNDUP
NATIONAL WEATHER SERVICE CLEVELAND, OH
1100 AM EDT WED AUG 27 2014

NOTE: "FAIR" INDICATES FEW OR NO CLOUDS BELOW 12,000 FEET WITH NO
SIGNIFICANT WEATHER AND/OR OBSTRUCTIONS TO VISIBILITY.

OHZ001>008-015>018-024>027-034-035-043-044-271600-
   NORTHWEST OHIO

CITY           SKY/WX    TMP DP  RH WIND       PRES   REMARKS
DEFIANCE       PTSUNNY   75  66  73 CALM      30.13R
FINDLAY        CLOUDY    76  68  76 NW5       30.11R
TOLEDO EXPRESS CLOUDY    72  66  81 N5        30.12R
TOLEDO EXEC    CLOUDY    74  65  73 N8        30.13R
LIMA           PTSUNNY   76  70  82 NW6       30.12R
$$

OHZ009>014-019>023-028>033-038-089-271600-
   NORTHEAST OHIO

CITY           SKY/WX    TMP DP  RH WIND       PRES   REMARKS
CLE-HOPKINS    CLOUDY    77  70  79 N8        30.11S
CLE-LAKEFRONT  CLOUDY    74  69  85 N9        30.09R
CUY CO. ARPT   CLOUDY    75  72  88 N8        30.10S HAZE
LORAIN-ELYRIA  CLOUDY    79  69  71 N8        30.10S
ASHTABULA      CLOUDY    72  66  81 N7        30.11S
AKRON-CANTON   CLOUDY    78  67  68 CALM      30.11R
WOOSTER        CLOUDY    78  69  73 CALM      30.11S
MANSFIELD      PTSUNNY   77  71  82 N6        30.11S
YOUNGSTOWN     CLOUDY    74  68  81 NW5       30.10S
$$

OHZ042-051>053-060>062-070>072-077>081-271600-
  SOUTHWEST OHIO

CITY           SKY/WX    TMP DP  RH WIND       PRES   REMARKS
CINC-COVINGTON MOSUNNY   84  68  58 N5        30.12R
CINC-LUNKEN    MOSUNNY   82  73  74 CALM      30.10S
HAMILTON       MOSUNNY   82  69  64 CALM      30.11R
DAYTON         MOSUNNY   81  69  67 N5        30.13R
WRIGHT-PAT AFB SUNNY     79  71  76 VRB1      30.11R
DAYTON GENERAL MOSUNNY   81  71  71 CALM      30.11R
WILMINGTON     MOSUNNY   81  69  67 NW5       30.11S
$$

OHZ036-037-039>041-045>050-054>059-063>069-073>076-082>088-271600-
  CENTRAL AND SOUTHEAST OHIO

CITY           SKY/WX    TMP DP  RH WIND       PRES   REMARKS
COLUMBUS       PTSUNNY   82  68  62 CALM      30.09S
OSU AIRPORT    MOSUNNY   81  69  67 CALM      30.10S
BOLTON FIELD     N/A    N/A N/A N/A CALM      30.10S
RICKENBACK AFB MOSUNNY   80  65  61 CALM      30.09S
NEWARK         SUNNY     78  69  73 CALM      30.09S
MARION         PTSUNNY   74  69  85 CALM      30.11S HAZE
LANCASTER      MOSUNNY   82  71  69 VRB5      30.10S
ZANESVILLE     PTSUNNY   80  68  66 W5        30.09F
NEW PHILLY     MOSUNNY   79  71  76 CALM      30.10S
$$


USA.gov is the U.S. government's official web portal to all federal, state and local government web resources and services.